Weather History for KBIE - December, 2013

Change the Weather History Date:

Thursday, December 5, 2013

  Actual Average (KLNK) Record (KLNK)
Temperature  
Mean Temperature 12 °F 29 °F  
Max Temperature 16 °F 40 °F 69 °F (1989)
Min Temperature 7 °F 19 °F -3 °F (2005)
Degree Days  
Heating Degree Days 54 36  
Month to date heating degree days 174  
Since 1 July heating degree days 1435  
Cooling Degree Days 0 0  
Month to date cooling degree days 0  
Year to date cooling degree days 1173  
Moisture  
Dew Point -1 °F    
Average Humidity 56    
Maximum Humidity 73    
Minimum Humidity 45    
Precipitation  
Precipitation 0.00 in 0.04 in 1.72 in (1913)
Month to date precipitation 0.18  
Year to date precipitation 28.18  
Snow  
Snow 0.00 in 0.20 in - ()
Month to date snowfall 0.9  
Since 1 July snowfall 3.7  
Snow Depth -    
Sea Level Pressure  
Sea Level Pressure 30.28 in    
Wind  
Wind Speed 15 mph (NNW)    
Max Wind Speed 23 mph    
Max Gust Speed 29 mph    
Visibility 10 miles    
Events      
T = Trace of Precipitation, MM = Missing Value Source: NWS Daily Summary

Daily Weather History Graph

Daily Weather History Graph

Search for Another Location

Airport or City:

Trip Planner

Search our weather history database for the weather conditions in past years. The results will help you decide how hot, cold, wet, or windy it might be!

Date:

Astronomy

Dec. 05, 2013 Rise Set
Actual Time 7:34 AM CST 5:00 PM CST
Civil Twilight 7:04 AM CST 5:31 PM CST
Nautical Twilight 6:30 AM CST 6:05 PM CST
Astronomical Twilight 5:57 AM CST 6:38 PM CST
Moon 9:55 AM CST (12/5) 8:23 PM CST (12/5)
Length of Visible Light 10h 26m
Length of Day
9h 26m
Waxing Crescent, 11% of the Moon is Illuminated
Dec 5
Waxing Crescent
Dec 9
First Quarter
Dec 17
Full
Dec 25
Last Quarter
Jan 1
New

Hourly Weather History & Observations

Time (CST) Temp. Windchill Dew Point Humidity Pressure Visibility Wind Dir Wind Speed Gust Speed Precip Events Conditions
12:15 AM 16.7 °F 2.0 °F 6.6 °F 65% 30.10 in 10.0 mi NW 15.0 mph 26.5 mph N/A   Mostly Cloudy
12:35 AM 16.7 °F -0.7 °F 6.3 °F 64% 30.11 in 10.0 mi NW 21.9 mph - N/A   Scattered Clouds
12:55 AM 16.3 °F 0.1 °F 5.4 °F 62% 30.12 in 10.0 mi NW 18.4 mph 28.8 mph N/A   Clear
1:15 AM 15.8 °F 0.3 °F 5.4 °F 63% 30.12 in 10.0 mi NW 16.1 mph - N/A   Clear
1:35 AM 15.4 °F -2.8 °F 5.0 °F 63% 30.12 in 10.0 mi NW 23.0 mph 28.8 mph N/A   Clear
1:55 AM 14.5 °F -3.2 °F 4.3 °F 64% 30.15 in 10.0 mi NW 20.7 mph 28.8 mph N/A   Clear
2:15 AM 14.0 °F -4.7 °F 3.6 °F 63% 30.17 in 10.0 mi NW 23.0 mph 27.6 mph N/A   Clear
2:35 AM 13.5 °F -5.0 °F 2.7 °F 62% 30.17 in 10.0 mi NW 21.9 mph 28.8 mph N/A   Clear
2:55 AM 12.6 °F -5.3 °F 2.5 °F 64% 30.18 in 10.0 mi NW 19.6 mph 24.2 mph N/A   Clear
3:15 AM 11.8 °F -4.2 °F 1.9 °F 65% 30.19 in 10.0 mi NW 15.0 mph 23.0 mph N/A   Clear
3:35 AM 11.3 °F -6.0 °F 1.4 °F 64% 30.20 in 10.0 mi NW 17.3 mph 23.0 mph N/A   Clear
3:55 AM 10.4 °F -6.6 °F 1.4 °F 67% 30.20 in 10.0 mi NW 16.1 mph - N/A   Clear
4:15 AM 9.9 °F -7.9 °F 0.7 °F 66% 30.20 in 10.0 mi NW 17.3 mph - N/A   Clear
4:35 AM 9.5 °F -7.8 °F 0.5 °F 67% 30.20 in 10.0 mi NW 16.1 mph 20.7 mph N/A   Clear
4:55 AM 9.1 °F -4.9 °F 0.5 °F 68% 30.22 in 10.0 mi NW 10.4 mph - N/A   Clear
5:15 AM 8.8 °F -6.1 °F 0.5 °F 69% 30.22 in 10.0 mi NW 11.5 mph - N/A   Clear
5:35 AM 8.6 °F -7.0 °F 0.5 °F 70% 30.22 in 10.0 mi NW 12.7 mph - N/A   Clear
5:55 AM 8.2 °F -4.1 °F 0.5 °F 71% 30.23 in 10.0 mi NW 8.1 mph - N/A   Clear
6:15 AM 7.7 °F -4.8 °F 0.5 °F 72% 30.24 in 10.0 mi NW 8.1 mph - N/A   Clear
6:35 AM 7.5 °F -6.0 °F 0.5 °F 73% 30.25 in 10.0 mi NW 9.2 mph - N/A   Clear
6:55 AM 8.1 °F -7.7 °F 0.5 °F 71% 30.24 in 10.0 mi NW 12.7 mph - N/A   Clear
7:15 AM 8.4 °F -8.6 °F 0.5 °F 70% 30.25 in 10.0 mi NW 15.0 mph - N/A   Clear
7:35 AM 8.4 °F -5.7 °F -0.0 °F 68% 30.25 in 10.0 mi NW 10.4 mph - N/A   Clear
7:55 AM 8.4 °F -7.3 °F 0.3 °F 70% 30.27 in 10.0 mi NW 12.7 mph - N/A   Clear
8:15 AM 8.8 °F -7.5 °F 0.1 °F 68% 30.27 in 10.0 mi NNW 13.8 mph - N/A   Clear
8:35 AM 9.0 °F -7.3 °F -0.6 °F 65% 30.28 in 10.0 mi NNW 13.8 mph - N/A   Clear
8:55 AM 9.5 °F -7.8 °F -0.6 °F 64% 30.29 in 10.0 mi NW 16.1 mph - N/A   Clear
9:15 AM 10.0 °F -6.5 °F -0.4 °F 63% 30.30 in 10.0 mi NNW 15.0 mph - N/A   Clear
9:35 AM 10.4 °F -3.3 °F -0.8 °F 61% 30.31 in 10.0 mi NW 10.4 mph - N/A   Clear
9:55 AM 10.4 °F -4.8 °F -1.3 °F 59% 30.32 in 10.0 mi NNW 12.7 mph - N/A   Clear
10:15 AM 10.9 °F -4.1 °F -1.3 °F 58% 30.34 in 10.0 mi NW 12.7 mph - N/A   Clear
10:35 AM 11.7 °F -3.8 °F -1.1 °F 57% 30.34 in 10.0 mi NW 13.8 mph 19.6 mph N/A   Clear
10:55 AM 12.0 °F -4.0 °F -1.7 °F 54% 30.33 in 10.0 mi NNW 15.0 mph 18.4 mph N/A   Clear
11:15 AM 13.1 °F 0.9 °F -1.3 °F 53% 30.34 in 10.0 mi NW 9.2 mph - N/A   Clear
11:35 AM 13.5 °F 1.3 °F -1.7 °F 51% 30.33 in 10.0 mi NNW 9.2 mph 17.3 mph N/A   Clear
11:55 AM 14.0 °F 0.5 °F -1.8 °F 49% 30.31 in 10.0 mi NNW 11.5 mph - N/A   Clear
12:15 PM 14.5 °F 4.6 °F -2.0 °F 48% 30.32 in 10.0 mi NNW 6.9 mph - N/A   Clear
12:35 PM 15.3 °F 2.8 °F -1.5 °F 48% 30.31 in 10.0 mi NW 10.4 mph - N/A   Clear
12:55 PM 16.0 °F 2.3 °F -1.5 °F 46% 30.31 in 10.0 mi NW 12.7 mph - N/A   Clear
1:15 PM 16.2 °F 3.2 °F -1.8 °F 45% 30.30 in 10.0 mi NNW 11.5 mph - N/A   Clear
1:35 PM 16.0 °F 2.3 °F -2.0 °F 45% 30.28 in 10.0 mi NNW 12.7 mph 19.6 mph N/A   Clear
1:55 PM 15.8 °F 2.1 °F -2.2 °F 45% 30.26 in 10.0 mi NNW 12.7 mph - N/A   Clear
2:15 PM 15.8 °F 0.9 °F -2.0 °F 45% 30.25 in 10.0 mi NW 15.0 mph 18.4 mph N/A   Clear
2:35 PM 15.8 °F 0.3 °F -2.0 °F 45% 30.25 in 10.0 mi NW 16.1 mph 20.7 mph N/A   Clear
2:55 PM 15.8 °F 0.9 °F -2.2 °F 45% 30.27 in 10.0 mi NNW 15.0 mph - N/A   Clear
3:15 PM 15.3 °F -0.4 °F -2.6 °F 45% 30.27 in 10.0 mi North 16.1 mph 20.7 mph N/A   Clear
3:35 PM 15.3 °F 2.8 °F -2.4 °F 46% 30.28 in 10.0 mi NNW 10.4 mph - N/A   Clear
3:55 PM 16.5 °F 4.3 °F -1.7 °F 45% 30.30 in 10.0 mi NNW 10.4 mph - N/A   Clear
4:15 PM 15.4 °F 2.3 °F -2.0 °F 46% 30.30 in 10.0 mi North 11.5 mph - N/A   Clear
4:35 PM 15.8 °F 2.7 °F -2.0 °F 45% 30.30 in 10.0 mi NNW 11.5 mph - N/A   Clear
4:55 PM 15.4 °F 3.0 °F -2.0 °F 46% 30.31 in 10.0 mi North 10.4 mph 16.1 mph N/A   Clear
5:15 PM 15.3 °F 2.8 °F -1.5 °F 48% 30.31 in 10.0 mi North 10.4 mph - N/A   Clear
5:35 PM 14.5 °F 3.6 °F -1.3 °F 50% 30.31 in 10.0 mi North 8.1 mph - N/A   Clear
5:55 PM 14.7 °F 3.8 °F -1.3 °F 49% 30.33 in 10.0 mi North 8.1 mph - N/A   Clear
6:15 PM 14.5 °F 2.7 °F -0.8 °F 51% 30.33 in 10.0 mi North 9.2 mph - N/A   Clear
6:35 PM 14.7 °F 2.9 °F -0.9 °F 50% 30.33 in 10.0 mi North 9.2 mph - N/A   Clear
6:55 PM 14.9 °F 2.3 °F -1.5 °F 48% 30.34 in 10.0 mi North 10.4 mph - N/A   Clear
7:15 PM 14.9 °F -0.8 °F -2.4 °F 46% 30.34 in 10.0 mi North 16.1 mph - N/A   Clear
7:35 PM 14.7 °F -1.1 °F -2.4 °F 47% 30.34 in 10.0 mi North 16.1 mph - N/A   Clear
7:55 PM 14.2 °F -1.7 °F -2.7 °F 47% 30.34 in 10.0 mi North 16.1 mph - N/A   Clear
8:15 PM 13.8 °F -3.7 °F -4.0 °F 45% 30.35 in 10.0 mi North 19.6 mph - N/A   Clear
8:35 PM 13.5 °F -2.7 °F -4.0 °F 46% 30.37 in 10.0 mi North 16.1 mph - N/A   Mostly Cloudy
8:55 PM 12.9 °F -2.8 °F -4.4 °F 46% 30.39 in 10.0 mi North 15.0 mph - N/A   Overcast
9:15 PM 12.7 °F -5.1 °F -3.8 °F 48% 30.38 in 10.0 mi North 19.6 mph - N/A   Overcast
9:35 PM 12.2 °F -4.8 °F -3.6 °F 49% 30.37 in 10.0 mi North 17.3 mph - N/A   Mostly Cloudy
9:55 PM 11.8 °F -4.8 °F -4.2 °F 49% 30.39 in 10.0 mi North 16.1 mph 21.9 mph N/A   Mostly Cloudy
10:15 PM 11.3 °F -3.6 °F -4.2 °F 50% 30.40 in 10.0 mi North 12.7 mph - N/A   Overcast
10:35 PM 11.1 °F -5.1 °F -5.3 °F 48% 30.41 in 10.0 mi North 15.0 mph - N/A   Overcast
10:55 PM 10.8 °F -4.3 °F -5.1 °F 49% 30.42 in 10.0 mi North 12.7 mph - N/A   Mostly Cloudy
11:15 PM 10.8 °F -3.6 °F -5.4 °F 48% 30.42 in 10.0 mi North 11.5 mph - N/A   Overcast
11:35 PM 10.8 °F -3.6 °F -6.2 °F 47% 30.42 in 10.0 mi North 11.5 mph - N/A   Overcast
11:55 PM 10.9 °F -2.6 °F -5.4 °F 48% 30.43 in 10.0 mi North 10.4 mph - N/A   Overcast